www.pogodaiklimat.ru

Погода и климат >> Архив погоды >> Нигер >> Maradi


ПОГОДА в Maradi

  • Прогноз погоды в Maradi
  • Монитор погоды в Maradi
  • Климат города

АРХИВ ПОГОДЫ в Maradi

Время (UTC), дата Ветер
(напр.,м/с)
 
Видим.   Явления Облачность Т
(С)
Тd
(С)
f
(%)
Тe
(С)
Тes
(С)
Комфортность P
(гПа)
Po
(гПа)
Тmin
(С)
Tmax
(С)
R
(мм)
R24
(мм)
S
(см)
03 14.10 ЮЗ 4 10 км 9/0
[Cs]
+25.8 +22.2 81 +34 +34 очень
душно
1009.0 968.4
06 14.10 Ю 6 10 км 9/0
[Ac trans Cs]
+24.6 1009.8 968.7 +23.0
09 14.10 ЮЗ 6 10 км 9/0
[Ac trans Cs]
+30.7 +23.1 64 +41 +44 опасность
перегрева
1011.4 970.3
12 14.10 СЗ 8 10 км 9/0
[Ac trans Cs]
+35.2 +23.1 50 +46 +48 опасность
перегрева
1009.2 968.4
15 14.10 З 8 10 км 9/1 600 м
[Cb cap Ac trans Cs]
+36.5 +22.6 45 +46 +46 опасность
перегрева
1006.9 966.2
18 14.10 ЮВ 22 10 км гроза без осадков 9/3 600 м
[Cb cap Ac As Ci sp]
+25.2 +20.1 73 +31 +31 очень
душно
1009.6 967.9 +36.8
21 14.10 ЮВ 14 10 км слабый дождь {гроза} 10/1 600 м
[Cb cap Ac As]
+26.2 +19.4 66 +32 +32 очень
душно
1012.5 971.2
03 15.10 Ю 4 10 км 9/0
[Ac As Ci sp]
+26.7 +21.3 72 +34 +34 очень
душно
1008.6 967.9
06 15.10 штиль 0 10 км 9/0
[Ac As Ci sp]
+24.0 +21.1 84 +30 +30 очень
душно
1011.4 969.6 +24.0 1
09 15.10 З 2 10 км 9/0
[Ac trans Ci sp]
+30.0 +21.9 62 +39 +45 очень
душно
1012.7 971.3
12 15.10 С 4 10 км 9/0
[Cs]
+34.9 +22.1 48 +44 +54 опасность
перегрева
1011.0 970.0
15 15.10 Ю 2 10 км 9/0
[Ac trans Cs]
+36.4 +21.6 42 +44 +49 опасность
перегрева
1008.8 968.1
18 15.10 Ю 4 10 км зарница 9/1 600 м
[Cb cap Ac trans Ci sp]
+32.5 +22.6 56 +42 +42 опасность
перегрева
1009.2 968.0 +37.0
21 15.10 ЮЗ 4 10 км 9/0
[Ac As]
+28.5 +24.3 78 +40 +40 очень
душно
1011.4 970.3
03 16.10 З 2 10 км 6/0
[Ci sp]
+25.0 +21.3 80 +32 +32 очень
душно
1010.4 969.5
06 16.10 ЮЗ 2 10 км 9/0
[Cs]
+24.0 +20.9 83 +30 +30 очень
душно
1011.7 970.4 +24.0
09 16.10 З 6 10 км 9/0
[Cs]
+31.0 +22.1 59 +40 +43 очень
душно
1013.1 972.0
12 16.10 штиль 0 10 км 9/1 900 м
[Cu hum Cs]
+36.7 +20.9 40 +43 +62 опасность
перегрева
1010.2 969.5
15 16.10 ЮВ 6 10 км 9/1 900 м
[Cu hum Cs]
+37.0 +17.5 32 +40 +42 очень
душно
1008.7 967.9
18 16.10 штиль 0 10 км 9/0
[Cs]
+32.5 +20.9 50 +40 +40 очень
душно
1009.3 968.1 +38.5
21 16.10 ЮЗ 2 10 км 9/0
[Cs]
+29.0 +21.8 65 +37 +37 очень
душно
1010.1 969.1
03 17.10 З 4 10 км 9/0
[Cs]
+25.5 +22.6 84 +34 +34 очень
душно
1009.4 968.6
06 17.10 штиль 0 10 км 9/0
[Cs]
+24.5 +22.8 90 +32 +32 очень
душно
1010.6 969.4 +23.0
09 17.10 З 4 10 км 6/0
[Ci sp]
+32.8 +23.5 58 +44 +50 опасность
перегрева
1011.6 969.2
12 17.10 В 2 10 км 9/0
[Cs]
+36.2 +20.9 41 +43 +58 опасность
перегрева
1008.9 968.1
15 17.10 ЮВ 8 10 км 6/1 600 м
[Cu med, cong Ci sp]
+37.1 +18.8 34 +41 +42 опасность
перегрева
1007.0 966.3
18 17.10 ЮЗ 4 10 км 6/0
[Ci sp]
+32.6 +20.8 50 +40 +40 очень
душно
1007.6 966.5 +38.6
21 17.10 З 4 10 км 9/0
[Cs]
+28.7 +19.8 59 +35 +35 очень
душно
1008.9 968.0
03 18.10 ЮЗ 2 10 км 9/0
[Cs]
+25.0 +21.5 81 +32 +32 очень
душно
1008.3 967.5
06 18.10 Ю 2 10 км 9/0
[Cs]
+23.6 +22.0 91 +30 +31 очень
душно
1009.6 968.4 +23.0
09 18.10 СЗ 8 10 км 9/0
[Cs]
+32.0 +23.6 61 +43 +45 опасность
перегрева
1010.1 969.2
12 18.10 З 6 10 км 6/1 600 м
[Cu hum Ci sp]
+36.2 +22.0 44 +45 +50 опасность
перегрева
1007.4 966.7
15 18.10 Ю 8 10 км 9/1 600 м
[Cu med, cong Cs]
+37.0 +19.1 35 +42 +42 опасность
перегрева
1005.4 964.7
18 18.10 Ю 2 10 км 9/0
[Cs]
+32.0 +22.1 56 +41 +41 опасность
перегрева
1006.9 965.7 +38.4
21 18.10 З 2 10 км 9/0
[Cs]
+28.1 +21.4 67 +36 +36 очень
душно
1008.5 967.6
03 19.10 штиль 0 10 км 9/0
[Cs]
+25.0 +22.1 84 +32 +32 очень
душно
1007.3 966.6
06 19.10 Ю 2 10 км 9/0
[Cs]
+24.0 +22.1 89 +31 +31 очень
душно
1009.2 968.0 +24.0
09 19.10 З 6 10 км 9/0
[Cs]
+31.5 +24.4 66 +44 +47 опасность
перегрева
1010.8 969.8
12 19.10 штиль 0 10 км 9/1 1500 м
[Cu hum Cs]
+36.5 +18.9 36 +41 +59 опасность
перегрева
1008.0 967.3
15 19.10 В 6 10 км 9/1 600 м
[Cu hum Cs]
+38.0 +15.3 26 +39 +41 очень
душно
1006.0 965.4
18 19.10 ЮВ 4 10 км 9/0
[Cs]
+32.5 +18.2 43 +37 +37 очень
душно
1007.2 966.2 +38.5
21 19.10 штиль 0 10 км 6/0
[Ci sp]
+27.3 +18.5 59 +32 +32 очень
душно
1008.0 967.0
03 20.10 В 4 10 км 6/0
[Ci sp]
+23.0 +16.7 68 +28 +28 душно 1007.6 966.8
06 20.10 ЮВ 2 10 км 9/0
[Cs]
+21.0 +16.9 77 +25 +26 комфорт 1009.4 968.0 +20.0
09 20.10 В 14 10 км 9/0
[Cs]
+34.0 +5.8 17 +32 +32 жарко 1010.6 969.7
12 20.10 В 16 10 км 9/0
[Cs]
+37.5 +7.0 16 +35 +35 очень
жарко
1008.3 967.5
15 20.10 ЮВ 14 10 км 9/0
[Cs]
+37.5 +5.0 14 +35 +35 очень
жарко
1006.5 965.7
18 20.10 ЮВ 4 10 км 9/0
[Ci sp]
+32.0 +12.2 30 +32 +32 жарко 1007.6 966.2 +38.5
21 20.10 ЮВ 4 10 км 9/0
[Cs]
+27.0 +21.5 72 +34 +34 очень
душно
1008.2 967.3

 

Местоположение метеостанции Maradi (Нигер): широта 13.47 долгота 7.08 высота над уровнем моря 373 м.

В архиве по умолчанию представлена погода в Maradi за последнюю неделю. Архивные данные за месяц целиком и за предыдущие месяцы, начиная с января 2011 года, Вы можете получить, выбрав интересующий диапазон дат из раскрывающегося списка и нажав кнопку "Ввод!".


*Определитесь, кто Вы:
робот инопланетянин человек

Внимание! Время в таблицах - всемирное. Для получения местного времени необходимо прибавить поправку, которая в Maradi равна 1 ч.

Смотрите также архив погоды в соседних городах и на ближайших метеорологических станциях:

Погода в Birni-Nkonni (Нигер) (201 км)
Погода в Magaria (Нигер) (208 км)
Погода в Zinder (Нигер) (208 км)
Погода в Cano (Нигерия) (223 км)
Погода в Tahoua (Нигер) (253 км)
Погода в Goure (Нигер) (353 км)
Погода в Yelwa (Нигерия) (384 км)
Погода в Agadez (Нигер) (401 км)
Погода в Dosso (Нигер) (423 км)
Погода в Gaya (Нигер) (432 км)

Пояснения к столбцам:

Ветер - указаны скорость ветра в м/с - средняя за 10 мин, порывы в срок и между сроками (в фигурных скобках) и направление, откуда дует ветер: С - северный, СВ - северо-восточный, В - восточный, ЮВ - юго-восточный, Ю - южный, ЮЗ - юго-западный, З - западный, СЗ - северо-западный.
Видимость - горизонтальная дальность видимости в метрах или километрах. При видимости от 1 до 10 км при отсутствии осадков обычно наблюдается дымка, при ухудшении видимости до 1 км и менее - туман. В сухую погоду видимость может ухудшаться дымом, пылью или мглою.
Явления - указаны атмосферные явления, наблюдавшиеся в срок или в последний час перед сроком; фигурными скобками обозначены явления, наблюдавшиеся между сроками (за 1-3 часа до срока); квадратными скобками обозначены град или гололедные отложения с указанием их диаметра в мм.
Облачность - указаны через наклонную черту общая и нижняя облачность в баллах и высота нижней границы облаков в метрах; квадратными скобками обозначены формы облаков: Ci - перистые, Cs - перисто-слоистые, Cc - перисто-кучевые, Ac - высококучевые, As - высокослоистые, Sc - слоисто-кучевые, Ns - слоисто-дождевые, Cu - кучевые, Cb - кучево-дождевые. Подробнее классификацию облаков см. в Атласе облаков (PDF).
T - Температура воздуха - температура, измеренная на высоте 2 м над землей.
Td - Температура точки росы - температура, при понижении до которой содержащийся в воздухе водяной пар достигнет насыщения.
f - Относительная влажность воздуха - влажноcть воздуха, измеренная на высоте 2 м над землей.
Te - Эффективная температура - температура, которую ощущает одетый по сезону человек в тени. Характеристика душности погоды. При расчете учитывается влияние влажности воздуха и скорости ветра на теплоощущения человека.
Tes - Эффективная температура на солнце - температура, которую ощущает человек, с поправкой на солнечный нагрев. Характеристика знойности погоды. Зависит от высоты солнца над горизонтом, облачности и скорости ветра. Ночью, в пасмурную погоду, а также при ветре 12 м/с и более поправка равна нулю.
P - Атмосферное давление - приведенное к уровню моря атмосферное давление.
Po - Атмосферное давление - измеренное на уровне метеостанции атмосферное давление.
Tmin - Минимальная температура - минимум температуры воздуха на высоте 2 м над землей.
Tmax - Максимальная температура - максимум температуры воздуха на высоте 2 м над землей.
R - Количество осадков - Количество выпавших осадков за период времени, мм. При наведении курсора мыши на число - период времени, за который выпало указанное количество осадков.
R24 - Количество осадков - Количество выпавших осадков за 24 часа, мм.
S - Снежный покров - Высота снежного покрова, см. При наведении курсора мыши на число - состояние снежного покрова и степень покрытия местности в баллах.